Miscellaneous Local Product
Issued by NWS Hastings, NE

Home | Current Version | Previous Version | Text Only | Print | Product List | Glossary On
Versions: 1 2 3 4 5 6 7 8 9 10 11 12 13 14 15 16 17 18 19 20 21 22 23 24 25 26 27 28 29 30 31 32 33 34 35 36 37 38 39 40 41 42 43 44 45 46 47 48 49 50
000
AXUS43 KGID 240302
MISGRI

GID CWA HOURLY WEATHER ROUNDUP
NATIONAL WEATHER SERVICE HASTINGS NE
1000 PM CDT SAT MAY 23 2015

NOTE: "FAIR" INDICATES FEW OR NO CLOUDS BELOW 12,000 FEET WITH NO
SIGNIFICANT WEATHER AND/OR OBSTRUCTIONS TO VISIBILITY.

...SOUTH CENTRAL NEBRASKA...

CITY           SKY/WX    TMP DP  RH WIND       PRES   REMARKS
GRAND ISLAND   CLOUDY    59  57  93 E9G18     30.00F
HASTINGS       CLOUDY    59  57  93 E10       29.99R
KEARNEY        CLOUDY    57  55  94 E10       29.98F
ORD            LGT RAIN  56  55  97 E6        30.01S FOG
YORK           CLOUDY    59  59 100 E12       29.99F
AURORA         CLOUDY    60  59  98 E10       29.99F
LEXINGTON      LGT RAIN  58  57  95 E12       29.96F
HOLDREGE       LGT RAIN  57  56  94 E10       29.97F
HEBRON         CLOUDY    60  57  90 E7        29.96R

...NEBRASKA PANHANDLE...

CITY           SKY/WX    TMP DP  RH WIND       PRES   REMARKS
CHADRON        CLOUDY    54  52  93 NE10      29.96S
ALLIANCE       CLOUDY    55  52  89 E16       29.94F
SCOTTSBLUFF    CLOUDY    55  54  96 SE5       29.92S
SIDNEY         RAIN      50  49  96 E9        29.96R FOG

...WESTERN AND NORTH CENTRAL NEBRASKA...

CITY           SKY/WX    TMP DP  RH WIND       PRES   REMARKS
VALENTINE      CLOUDY    55  54  96 E10       30.02F
AINSWORTH      RAIN      55  55  98 E10       30.03F
ONEILL         CLOUDY    58  56  94 NE6       30.05S
BROKEN BOW     LGT RAIN  57  55  93 E9        30.00F FOG
IMPERIAL       CLOUDY    57  54  89 E17       29.92F
NORTH PLATTE   CLOUDY    56  54  93 E15       29.96F
MCCOOK         CLOUDY    58  55  90 E12       29.94R

...EASTERN NEBRASKA...

CITY           SKY/WX    TMP DP  RH WIND       PRES   REMARKS
NORFOLK        LGT RAIN  59  57  93 E6        30.04R
SO SIOUX CITY  CLOUDY    63  55  75 SE5       30.07R
TEKAMAH        CLOUDY    63  58  83 E7        30.05S
COLUMBUS       CLOUDY    59  54  82 E8        30.06S
ALBION         RAIN      58  55  88 E6        30.05R
OMAHA EPPLEY   LGT RAIN  63  60  90 E5        30.04S
OFFUTT AFB     CLOUDY    62  60  91 E8        30.02F
MILLARD        CLOUDY    63  60  90 CALM      30.04S
LINCOLN        CLOUDY    62  60  93 E9        29.99F
NEBRASKA CITY  DRIZZLE   62  61  98 E16G23    29.97F
BEATRICE       CLOUDY    61  59  93 E8        29.98S
FALLS CITY     LGT RAIN  62  60  93 E24       29.96F

...NORTHERN KANSAS...

CITY           SKY/WX    TMP DP  RH WIND       PRES   REMARKS
GOODLAND       CLOUDY    54  51  90 CALM      29.89R
HILL CITY      LGT RAIN  58  57  97 E8        29.94R FOG
NORTON         CLOUDY    55  54  94 E9        29.93S FOG
PHILLIPSBURG   CLOUDY    63  61  94 E9        29.95R
SMITH CENTER   CLOUDY    57  55  94 NE9       29.96R
HAYS           CLOUDY    59  52  77 E7        29.93R
RUSSELL        CLOUDY    58  57  97 NE7       29.92R
CONCORDIA      CLOUDY    60  58  92 E8        29.95R
SALINA         CLOUDY    61  58  90 N5        29.92R
TOPEKA         RAIN      63  62  97 E9        30.01F FOG



USA.gov is the U.S. government's official web portal to all federal, state and local government web resources and services.